Weather History for Grant County, OR

Change the Weather History Date:

Saturday, January 19, 2013

  Actual Average (KBNO) Record (KBNO)
Temperature  
Mean Temperature 34 °F 25 °F  
Max Temperature 42 °F 35 °F 50 °F (1994)
Min Temperature 26 °F 15 °F -8 °F (1984)
Degree Days  
Heating Degree Days 31 40  
Month to date heating degree days 771  
Since 1 July heating degree days 4038  
Cooling Degree Days 0 0  
Month to date cooling degree days 0  
Year to date cooling degree days 0  
Moisture  
Dew Point 19 °F    
Average Humidity 55    
Maximum Humidity 69    
Minimum Humidity 39    
Precipitation  
Precipitation 0.00 in 0.03 in 0.53 in (1957)
Month to date precipitation 0.78  
Year to date precipitation 0.78  
Sea Level Pressure  
Sea Level Pressure 30.36 in    
Wind  
Wind Speed 8 mph (ESE)    
Max Wind Speed 12 mph    
Max Gust Speed 16 mph    
Visibility 10 miles    
Events      
T = Trace of Precipitation, MM = Missing Value Source: NWS Daily Summary

Daily Weather History Graph

Daily Weather History Graph

Search for Another Location

Airport:

Trip Planner

Search our weather history database for the weather conditions in past years. The results will help you decide how hot, cold, wet, or windy it might be!

Date:

Astronomy

Jan. 19, 2013 Rise Set
Actual Time 7:25 AM PST 4:47 PM PST
Civil Twilight 6:53 AM PST 5:19 PM PST
Nautical Twilight 6:18 AM PST 5:55 PM PST
Astronomical Twilight 5:43 AM PST 6:30 PM PST
Moon 11:19 AM PST (1/19) 1:01 AM PST (1/19)
Length of Visible Light 10h 26m
Length of Day
9h 22m
First Quarter, 58% of the Moon is Illuminated
Jan 19
First Quarter
Jan 26
Full
Feb 3
Last Quarter
Feb 9
New
Feb 17
First Quarter

Hourly Weather History & Observations

Time (PST) Temp. Windchill Dew Point Humidity Pressure Visibility Wind Dir Wind Speed Gust Speed Precip Events Conditions
12:15 AM 32.0 °F 24.2 °F 19.4 °F 60% 30.35 in 10.0 mi ESE 9.2 mph - N/A   Clear
12:35 AM 32.0 °F 24.2 °F 17.6 °F 55% 30.35 in 10.0 mi ESE 9.2 mph - N/A   Clear
12:55 AM 30.2 °F 20.8 °F 19.4 °F 64% 30.35 in 10.0 mi ESE 11.5 mph - N/A   Clear
1:15 AM 30.2 °F 20.8 °F 19.4 °F 64% 30.35 in 10.0 mi SE 11.5 mph - N/A   Clear
1:35 AM 32.0 °F 24.2 °F 17.6 °F 55% 30.36 in 10.0 mi ESE 9.2 mph - N/A   Clear
1:55 AM 30.2 °F 21.3 °F 17.6 °F 60% 30.36 in 10.0 mi SE 10.4 mph - N/A   Clear
2:15 AM 30.2 °F 21.3 °F 17.6 °F 60% 30.36 in 10.0 mi ESE 10.4 mph 16.1 mph N/A   Clear
2:35 AM 28.4 °F 19.1 °F 17.6 °F 64% 30.36 in 10.0 mi ESE 10.4 mph - N/A   Clear
2:55 AM 28.4 °F 19.7 °F 17.6 °F 64% 30.36 in 10.0 mi ESE 9.2 mph - N/A   Clear
3:15 AM 28.4 °F 19.7 °F 17.6 °F 64% 30.36 in 10.0 mi ESE 9.2 mph - N/A   Clear
3:35 AM 28.4 °F 20.4 °F 17.6 °F 64% 30.36 in 10.0 mi ESE 8.1 mph - N/A   Clear
3:55 AM 28.4 °F 19.1 °F 17.6 °F 64% 30.36 in 10.0 mi ESE 10.4 mph - N/A   Clear
4:55 AM 26.6 °F 17.5 °F 17.6 °F 69% 30.36 in 10.0 mi ESE 9.2 mph - N/A   Clear
5:15 AM 26.6 °F 17.5 °F 17.6 °F 69% 30.36 in 10.0 mi East 9.2 mph - N/A   Clear
5:55 AM 26.6 °F 17.5 °F 17.6 °F 69% 30.36 in 10.0 mi East 9.2 mph - N/A   Clear
6:35 AM 26.6 °F 17.5 °F 17.6 °F 69% 30.37 in 10.0 mi ESE 9.2 mph - N/A   Clear
7:35 AM 26.6 °F 18.2 °F 15.8 °F 64% 30.38 in 10.0 mi ESE 8.1 mph - N/A   Clear
7:55 AM 28.4 °F 19.7 °F 15.8 °F 59% 30.39 in 10.0 mi SE 9.2 mph - N/A   Clear
8:15 AM 28.4 °F 21.2 °F 17.6 °F 64% 30.39 in 10.0 mi ESE 6.9 mph - N/A   Clear
8:35 AM 28.4 °F 21.2 °F 17.6 °F 64% 30.40 in 10.0 mi ESE 6.9 mph - N/A   Clear
9:15 AM 32.0 °F 24.8 °F 17.6 °F 55% 30.41 in 10.0 mi ESE 8.1 mph - N/A   Clear
9:35 AM 32.0 °F 25.6 °F 17.6 °F 55% 30.41 in 10.0 mi East 6.9 mph - N/A   Clear
9:55 AM 33.8 °F 28.6 °F 19.4 °F 56% 30.40 in 10.0 mi East 5.8 mph - N/A   Clear
10:15 AM 33.8 °F 27.0 °F 19.4 °F 56% 30.40 in 10.0 mi East 8.1 mph - N/A   Clear
10:35 AM 33.8 °F 27.7 °F 19.4 °F 56% 30.39 in 10.0 mi East 6.9 mph - N/A   Clear
10:55 AM 35.6 °F 29.2 °F 19.4 °F 52% 30.39 in 10.0 mi East 8.1 mph - N/A   Clear
11:15 AM 37.4 °F 33.8 °F 19.4 °F 48% 30.38 in 10.0 mi ENE 4.6 mph - N/A   Clear
11:35 AM 39.2 °F 37.0 °F 19.4 °F 45% 30.37 in 10.0 mi East 3.5 mph - N/A   Clear
11:55 AM 41.0 °F - 19.4 °F 42% 30.37 in 10.0 mi Calm Calm - N/A   Clear
12:15 PM 41.0 °F 39.0 °F 21.2 °F 45% 30.36 in 10.0 mi NW 3.5 mph - N/A   Clear
12:35 PM 41.0 °F - 21.2 °F 45% 30.36 in 10.0 mi Calm Calm - N/A   Clear
12:55 PM 41.0 °F - 21.2 °F 45% 30.35 in 10.0 mi Calm Calm - N/A   Clear
1:15 PM 42.8 °F - 23.0 °F 46% 30.35 in 10.0 mi Calm Calm - N/A   Clear
1:35 PM 42.8 °F 40.1 °F 23.0 °F 46% 30.34 in 10.0 mi East 4.6 mph - N/A   Clear
1:55 PM 42.8 °F 40.1 °F 23.0 °F 46% 30.34 in 10.0 mi East 4.6 mph - N/A   Clear
2:15 PM 42.8 °F 40.1 °F 23.0 °F 46% 30.34 in 10.0 mi ESE 4.6 mph - N/A   Clear
2:35 PM 42.8 °F 41.1 °F 21.2 °F 42% 30.34 in 10.0 mi ESE 3.5 mph - N/A   Clear
2:55 PM 42.8 °F 41.1 °F 19.4 °F 39% 30.34 in 10.0 mi ESE 3.5 mph - N/A   Clear
3:15 PM 42.8 °F 38.6 °F 19.4 °F 39% 30.34 in 10.0 mi East 6.9 mph - N/A   Clear
3:35 PM 42.8 °F 39.3 °F 19.4 °F 39% 30.34 in 10.0 mi East 5.8 mph - N/A   Clear
3:55 PM 41.0 °F 37.1 °F 19.4 °F 42% 30.34 in 10.0 mi East 5.8 mph - N/A   Clear
4:15 PM 41.0 °F 36.4 °F 19.4 °F 42% 30.34 in 10.0 mi ESE 6.9 mph - N/A   Clear
4:35 PM 39.2 °F 33.6 °F 19.4 °F 45% 30.34 in 10.0 mi East 8.1 mph - N/A   Clear
4:55 PM 37.4 °F 32.1 °F 19.4 °F 48% 30.34 in 10.0 mi East 6.9 mph - N/A   Clear
5:15 PM 37.4 °F 32.1 °F 21.2 °F 52% 30.34 in 10.0 mi East 6.9 mph - N/A   Clear
5:35 PM 37.4 °F 30.8 °F 19.4 °F 48% 30.34 in 10.0 mi East 9.2 mph - N/A   Clear
5:55 PM 37.4 °F 31.4 °F 19.4 °F 48% 30.34 in 10.0 mi East 8.1 mph - N/A   Clear
6:15 PM 35.6 °F 28.0 °F 19.4 °F 52% 30.34 in 10.0 mi ESE 10.4 mph - N/A   Clear
6:35 PM 33.8 °F 26.4 °F 21.2 °F 60% 30.35 in 10.0 mi East 9.2 mph - N/A   Clear
6:55 PM 33.8 °F 26.4 °F 21.2 °F 60% 30.35 in 10.0 mi ESE 9.2 mph - N/A   Clear
7:15 PM 33.8 °F 26.4 °F 21.2 °F 60% 30.35 in 10.0 mi ESE 9.2 mph - N/A   Clear
7:35 PM 33.8 °F 27.0 °F 21.2 °F 60% 30.36 in 10.0 mi ESE 8.1 mph - N/A   Clear
7:55 PM 33.8 °F 27.7 °F 21.2 °F 60% 30.37 in 10.0 mi ESE 6.9 mph - N/A   Clear
8:15 PM 33.8 °F 27.0 °F 19.4 °F 56% 30.37 in 10.0 mi SE 8.1 mph - N/A   Clear
8:35 PM 32.0 °F 23.6 °F 19.4 °F 60% 30.38 in 10.0 mi SE 10.4 mph - N/A   Clear
8:55 PM 32.0 °F 24.8 °F 19.4 °F 60% 30.38 in 10.0 mi ESE 8.1 mph - N/A   Clear
9:15 PM 32.0 °F 25.6 °F 19.4 °F 60% 30.38 in 10.0 mi SE 6.9 mph - N/A   Clear
9:35 PM 33.8 °F 25.8 °F 19.4 °F 56% 30.38 in 10.0 mi SE 10.4 mph - N/A   Clear
10:15 PM 33.8 °F 27.0 °F 19.4 °F 56% 30.39 in 10.0 mi SE 8.1 mph - N/A   Clear
10:35 PM 32.0 °F 24.8 °F 19.4 °F 60% 30.39 in 10.0 mi SE 8.1 mph - N/A   Clear
10:55 PM 32.0 °F 24.2 °F 19.4 °F 60% 30.39 in 10.0 mi SE 9.2 mph - N/A   Clear
11:15 PM 32.0 °F 23.6 °F 19.4 °F 60% 30.39 in 10.0 mi SE 10.4 mph - N/A   Clear
11:35 PM 32.0 °F 24.2 °F 19.4 °F 60% 30.40 in 10.0 mi SE 9.2 mph - N/A   Clear